Preview of NWS' New Version of Forecast
This preview is not operational and should not be used for support decisions.

Regional Weather Roundup (RWR)

Issued by National Weather Service (NWS)

                            
000
ASUS43 KDMX 182101
RWRIA 

WEATHER ROUNDUP FOR IOWA
NATIONAL WEATHER SERVICE DES MOINES IA
400 PM CDT TUE JUN 18 2019

NOTE: "FAIR" INDICATES FEW OR NO CLOUDS BELOW 12,000 FEET WITH NO
SIGNIFICANT WEATHER AND/OR OBSTRUCTIONS TO VISIBILITY.

* - THESE STATIONS ARE NOT NWS STATIONS...THUS NOT UNDER NWS
QUALITY CONTROL.  THEY ALSO DO NOT REPORT WEATHER SUCH 
AS PRECIPITATION OR FOG.  

IAZ001>003-012>014-020>022-031>034-043>046-182200-
   NORTHWEST IOWA
  
CITY           SKY/WX    TMP DP  RH WIND       PRES   REMARKS
CARROLL *      DRIZZLE   68  64  88 NE8       29.93F                  
CHEROKEE *     SUNNY     70  60  72 CALM      29.95F                  
DENISON *      DRIZZLE   66  66 100 N7        29.96S                  
LE MARS *      MOSUNNY   73  54  49 N5        29.94S                  
SHELDON *      SUNNY     75  48  38 N6        29.93F                  
SIOUX CITY     MOSUNNY   68  58  70 SE6       29.95F                  
SPENCER        SUNNY     75  50  41 CALM      29.95F                  
STORM LAKE *   SUNNY     68  59  73 E6        29.93F                  
$$
 
IAZ055>058-069>071-079>083-090>094-182200-
   SOUTHWEST IOWA
  
CITY           SKY/WX    TMP DP  RH WIND       PRES   REMARKS
ATLANTIC *     LGT RAIN  68  68 100 E5        29.91S                  
AUDUBON *      DRIZZLE   66  63  88 CALM      29.94F                  
CLARINDA *     MOSUNNY   73  68  83 N12       29.90S                  
COUNCIL BLFS * LGT RAIN  66  66 100 N8        29.92S                  
CRESTON *      CLOUDY    73  61  64 NE8       29.90F                  
HARLAN  *      PTSUNNY   68  66  94 NE7       29.93S                  
LAMONI         SUNNY     80  58  46 VRB3      29.89F HX  80           
RED OAK *      RAIN      68  66  94 N6        29.92R                  
SHENANDOAH *   HVY RAIN  68  68 100 NW9       29.90S                  
$$
 
IAZ047>049-059>061-072>074-084-182200-
   CENTRAL IOWA
  
CITY           SKY/WX    TMP DP  RH WIND       PRES   REMARKS
AMES           CLOUDY    70  64  81 NE6       29.92F                  
ANKENY *       PTSUNNY   73  64  73 NE8       29.91F                  
BOONE *        CLOUDY    70  70 100 VRB3      29.92F                  
CHARITON *     MOSUNNY   79  61  53 SE5       29.89F HX  80           
DES MOINES     CLOUDY    77  54  44 E3        29.89F                  
GRINNELL*      CLOUDY    76  64  66 NE7       29.92F                  
KNOXVILLE *    PTSUNNY   77  61  57 E6        29.89F                  
MARSHALLTOWN   CLOUDY    70  61  73 N5        29.92S                  
NEWTON *       MOSUNNY   75  64  69 NE9       29.90F                  
PELLA *        PTSUNNY   77  61  56 CALM      29.91S                  
PERRY *        CLOUDY    70  68  93 CALM      29.92F                  
$$
 
IAZ004>006-015-016-023>025-035-036-182200-
   NORTH CENTRAL IOWA
  
CITY           SKY/WX    TMP DP  RH WIND       PRES   REMARKS
ALGONA *       PTSUNNY   72  57  60 NE6       29.94S                  
CLARION *      CLOUDY    70  61  73 CALM      29.94S                  
ESTHERVILLE    MOSUNNY   72  53  51 NE3       29.94F                  
FORT DODGE *   CLOUDY    68  63  84 CALM      29.95S                  
MASON CITY     CLOUDY    72  58  61 NW5       29.94F                  
FOREST CITY *  PTSUNNY   72  54  53 NW7       29.94F                  
IOWA FALLS *   CLOUDY    68  64  85 CALM      29.94F                  
$$

IAZ007>011-017>019-026>030-037>042-050>054-066-182200-
   NORTHEAST IOWA
  
CITY           SKY/WX    TMP DP  RH WIND       PRES   REMARKS
CEDAR RAPIDS   CLOUDY    75  60  59 VRB3      29.90F                  
CHARLES CITY * CLOUDY    72  59  64 CALM      29.93F                  
CLINTON *      PTSUNNY   84  63  49 CALM      29.90F HX  85           
DECORAH *      PTSUNNY   70  59  68 CALM      29.91F                  
DUBUQUE        CLOUDY    74  62  66 CALM      29.92F                  
MONTICELLO *   FAIR      73  64  73 W5        29.91F                  
OELWEIN *      CLOUDY    68  66  94 NW7       29.93S                  
WATERLOO       CLOUDY    71  64  78 NW5       29.92S                  
$$
 
IAZ064-065-067-068-078-182200-
   EAST CENTRAL IOWA
  
CITY           SKY/WX    TMP DP  RH WIND       PRES   REMARKS
DAVENPORT      FAIR      79  59  50 N3        29.91F HX  80           
IOWA CITY      PTSUNNY   78  63  59 N6        29.91F HX  80           
MUSCATINE *    FAIR      81  59  47 CALM      29.90S HX  81           
QUAD CITIES    FAIR      82  59  45 CALM      29.88F HX  82           
$$
 
IAZ062-063-075>077-085>089-095>099-182200-
   SOUTHEAST IOWA
  
CITY           SKY/WX    TMP DP  RH WIND       PRES   REMARKS
BURLINGTON     SUNNY     79  59  50 VRB3      29.89F HX  80           
FAIRFIELD *    SUNNY     79  61  53 NE7       29.88F HX  80           
FORT MADISON * SUNNY     79  63  57 E5        29.90F HX  80           
KEOKUK *       SUNNY     79  61  53 E6        29.88F HX  80           
OSKALOOSA *      N/A     79  58  48 CALM      29.90F HX  80           
OTTUMWA        SUNNY     81  61  50 SE5       29.89F HX  82           
WASHINGTON *   MOSUNNY   79  64  61 N6        29.91F HX  81           
$$

ABBREVIATIONS USED IN REMARKS
   TC - TEMPERATURES IN CELSIUS
  WCI - WIND CHILL INDEX
   HX - HEAT INDEX
  VSB - VISIBILITY  
$$